Regional Weather Roundup
Issued by NWS Grand Forks, ND

Home | Current Version | Previous Version | Graphics & Text | Print | Product List | Glossary On
Versions: 1 2 3 4 5 6 7 8 9 10 11 12 13 14 15 16 17 18 19 20 21 22 23 24 25 26 27 28 29 30 31 32 33 34 35 36 37 38 39 40 41 42 43 44 45 46 47 48 49 50
000
ASUS43 KFGF 252210
RWRFGF
PRAIRIE TO PINES  WEATHER ROUNDUP
NATIONAL WEATHER SERVICE EASTERN NORTH DAKOTA/GRAND FORKS ND
500 PM CDT SAT MAR 25 2017

 **SATELLITE DATA USED TO AUGMENT SKY COVER AT AUTOMATED STATIONS**
 *****  WEATHER ACROSS EASTERN NORTH DAKOTA  *****

CITY           SKY/WX    TMP DP  RH WIND       PRES   REMARKS
GRAND FORKS    CLOUDY    37  34  89 S14       30.05F
GRAND FRKS AFB CLOUDY    36  32  87 S14       30.04F
DEVILS LAKE    FAIR      39  33  79 SE14      29.96F
FARGO          FAIR      41  34  76 S14       30.07F
WAHPETON ARPT  MOCLDY    37  32  81 SE5       30.08F
$$

 ***** WEATHER ACROSS CENTRAL AND WESTERN NORTH DAKOTA  *****

CITY           SKY/WX    TMP DP  RH WIND       PRES   REMARKS
BISMARCK       FAIR      54  30  40 S10       29.93F
MINOT          FAIR      52  37  56 SW12      29.87S
JAMESTOWN      FAIR      43  35  73 S12       29.98F
MINOT AFB      FAIR      52  40  64 S13       29.86S
GARRISON         N/A     47  36  65 S7        29.88F
WILLISTON      FAIR      59  28  30 W8        29.86S
DICKINSON      PTSUNNY   59  23  25 NW14      29.85S
HETTINGER      FAIR      58  34  40 SE3       29.87F
$$

 *****  OTHER AIRPORT OBSERVATIONS IN OUR AREA  *****

CITY           SKY/WX    TMP DP  RH WIND       PRES   REMARKS
WALHALLA       NOT AVBL
GRAFTON AIRPOR CLOUDY    36  34  93 S20       30.06F
VALLEY CITY AR MOCLDY    37  37 100 SE15      30.02F
CANDO          NOT AVBL
CAVALIER APRT  CLOUDY    34  32  93 S18       30.01F WCI  23
GWINNER        PTCLDY    41  34  75 MISG      30.04S
SHEYENNE NWR     N/A     39  30  71 S9        29.95S
ROLLA          FAIR      36  36 100 S16G23    29.91S
 ***** THE ABOVE OBSERVATIONS ARE NON NWS ARE NOT QUALITY
       CONTROLLED AND MAY MIS-REPORT RAIN FOR SNOW...
$$

  *****  WEATHER ACROSS NORTHERN MINNESOTA  *****

CITY           SKY/WX    TMP DP  RH WIND       PRES   REMARKS
FLAG ISLAND    FAIR      37  28  70 SE10      30.08F
WARROAD        FAIR      45  34  65 S9        30.07F
ROSEAU         FAIR      45  34  65 S12       30.06F
HALLOCK        FAIR      37  34  87 S14       30.05F
THF RVR FALLS  FAIR     N/A N/A N/A SE9       30.06F
BAUDETTE       FAIR      44  28  53 S10       30.08F
WASKISH        FAIR      46  28  49 SE12      30.09F
CROOKSTON      FAIR      43  37  81 SW7       30.06F
GREENBUSH NDAW   N/A     39  34  81 S8          N/A
$$
  *****  WEATHER ACROSS CENTRAL AND WEST MINNESOTA  *****

CITY           SKY/WX    TMP DP  RH WIND       PRES   REMARKS
FOSSTON        FAIR      48  32  53 SE3       30.06F
BEMIDJI        FAIR      44  30  58 SE12      30.09S
PARK RAPIDS    FAIR      46  27  47 E9        30.06F
ELBOW LAKE     FAIR      44  32  62 SE10      30.06F
WADENA         FAIR      45  30  57 E13       30.06F
DETROIT LAKES  FAIR      46  32  57 SE9       30.06F
MOORHEAD       FAIR      39  34  81 S9        30.08F
FERGUS FALLS   FAIR      45  32  61 S8        30.09F
MORRIS MN      CLOUDY    39  34  81 SE10      30.06F
STAPLES        FAIR      45  27  49 E8        30.07F
$$
  *****  WEATHER ELSEWHERE ACROSS MINNESOTA  *****

CITY           SKY/WX    TMP DP  RH WIND       PRES   REMARKS
DULUTH         CLOUDY    32  28  85 E17       30.15F WCI  21
INTRNTL FALLS  FAIR      41  26  55 SE15      30.13F
ELY            CLOUDY    36  27  69 SE10      30.18S
CLOQUET        CLOUDY    34  28  80 E13       30.14F WCI  25
WHEATON        PTSUNNY   41  32  70 SE12      30.08F
BRAINERD       FAIR      45  29  53 SE5       30.09F
HIBBING        CLOUDY    34  27  75 E12       30.15F
ALEXANDRIA     FAIR      43  32  65 E8        30.07F
SAINT CLOUD    CLOUDY    42  33  70 E13       30.08F
MINNEAPOLIS    CLOUDY    43  32  65 E12       30.07F
$$

  *****  WEATHER ACROSS SOUTH DAKOTA  *****

CITY           SKY/WX    TMP DP  RH WIND       PRES   REMARKS
SIOUX FALLS    CLOUDY    42  38  85 E13       30.00R
BROOKINGS      CLOUDY    40  36  86 NE10      30.00F
WATERTOWN      CLOUDY    36  33  89 E10       30.01F
HURON          FAIR      44  36  73 SE8       29.99F
SISSETON         N/A     38  34  85 SE12      30.05F
ABERDEEN       FAIR      48  32  53 E8        30.00F
MITCHELL       FAIR      47  36  65 NE10      30.00S
PIERRE         FAIR      54  31  41 SE15      29.90F
MOBRIDGE       FAIR      57  30  35 SE18      29.89F
RAPID CITY     FAIR      63  30  28 N7        29.82F
$$

  *****  SOME WEATHER IN NEARBY STATES *****

CITY           SKY/WX    TMP DP  RH WIND       PRES   REMARKS
GLASGOW MT     FAIR      59  24  26 NW13      29.87F
GREAT FALLS MT FAIR      55  18  23 W16G25    29.88F
CHEYENNE WY    FAIR      59  16  18 S17       29.89F
SCOTTSBLUFF NE FAIR      67  27  22 SE5       29.82F
OMAHA NE       CLOUDY    43  38  82 NE15      29.92F
DES MOINES IA  LGT RAIN  43  41  93 NE10      29.90F FOG
DAVENPORT IA   CLOUDY    51  49  92 E16       29.90S
CHICAGO IL     LGT RAIN  43  40  89 N10       29.99S FOG
EAU CLAIRE WI  CLOUDY    41  33  73 E15       30.08F
LA CROSSE WI   CLOUDY    40  35  83 E12G21    30.05F
$$

  *****  SOME NATIONAL WEATHER *****

CITY           SKY/WX    TMP DP  RH WIND       PRES   REMARKS
LA GUARDIA NY  CLOUDY    50  38  63 E8        30.27R
RALEIGH NC     PTSUNNY   72  48  42 SW14      30.20S
ATLANTA GA     PTSUNNY   74  50  42 S15       30.11F
NEW ORLEANS LA PTSUNNY   66  61  84 S10       29.99F
OKLAHOMA CITY  PTSUNNY   59  43  55 NW6       29.93F
ALBUQUERQUE NM PTSUNNY   67  18  15 S9        29.91F
SALT LAKE CITY LGT RAIN  42  38  85 CALM      29.99F
LOS ANGELES CA PTSUNNY   64  56  75 SW13      30.06F
BOISE ID       FAIR      55  31  39 W10       30.01F
SEATTLE WA     PTSUNNY   50  39  66 SW14      30.10F
$$

*** WEATHER ACROSS MANITOBA...SASKATCHEWAN AND ONTARIO ***
                ***ONTARIO***

CITY           SKY/WX    TMP DP  RH WIND       PRES   REMARKS
GERALDTON      PTSUNNY   34   0  23 E10       30.31F
THUNDER BAY    MOSUNNY   32  21  64 E14       30.30F WCI  22
SIOUX LOOKOUT  PTSUNNY   39  18  41 SE7       30.15F
TORONTO        PTSUNNY   39  32  75 SE8       30.34S
BIG TROUT LK   SUNNY     28   7  40 SE14G20   30.22F WCI  17
PICKLE LAKE    CLOUDY    32  -2  23 SE13G18   30.21F WCI  22
DRYDEN         MOSUNNY   41  25  52 SE16      30.11F
KENORA         PTSUNNY   39  27  60 S15       30.08F
$$
                *** MANITOBA***

CITY           SKY/WX    TMP DP  RH WIND       PRES   REMARKS
BRANDON        CLOUDY    39  32  75 SW14      29.88F
DAUPHIN        SUNNY     45  34  65 SW12G24   29.78R
ISLAND LAKE    CLOUDY    39  25  56 SE18G28   29.96F
PILOT MOUND      N/A     36  32  87 S20G26      N/A
THE PAS        CLOUDY    34  30  86 S13       29.66R WCI  25
THOMPSON       SNOW      25  23  93 E10G17    29.79S VSB 1/2 WCI  15
WINNIPEG       CLOUDY    37  32  81 S18G30    29.99F
LYNN LAKE      SNOW      21  19  93 NE10      29.79S VSB 3/8 WCI  10
CHURCHILL      CLOUDY    14   7  73 SE13      30.17F WCI   0
GILLAM         FLURRIES  32  10  40 SE12G17   30.00F WCI  23
$$
                ***SASKATCHEWAN***

CITY           SKY/WX    TMP DP  RH WIND       PRES   REMARKS
ESTEVAN        PTSUNNY   55  36  47 SW9       29.82S
KINDERSLEY     PTSUNNY   55  30  38 W10       29.75F
LLOYDMINSTER   PTSUNNY   36  30  80 SW5       29.77S
PRINCE ALBERT  PTSUNNY   36  30  80 NW16      29.75R
REGINA         PTSUNNY   52  36  54 NW21G26   29.80R
YORKTON        MOSUNNY   52  37  58 W20G25    29.71R
N. BATTLEFORD  CLOUDY    39  36  87 NW8       29.81R
LA RONGE       FLURRIES  27  19  74 N5        29.77R WCI  21
SASKATOON      PTSUNNY   41  36  81 NW15      29.80R
SWIFT CURRENT  MOSUNNY   55  27  33 W13G18    29.79S
$$
NOTE: THESE ARE AUTOMATED STATIONS WITH LIMITED QUALITY CONTROL
      "FAIR" INDICATES FEW OR NO CLOUDS BELOW 12,000 FEET WITH NO
      SIGNIFICANT WEATHER AND/OR OBSTRUCTIONS TO VISIBILITY.
      SKY/WX - SKY CONDITION AND SIGNIFICANT WEATHER.
      TMP - AIR TEMPERATURE.    DP   - DEWPOINT TEMPERATURE.
      RH  - RELATIVE HUMIDITY.  PRES - PRESSURE.
      HX  - HEAT INDEX.         WCI  - WIND CHILL INDEX.
$



USA.gov is the U.S. government's official web portal to all federal, state and local government web resources and services.